Home > Time Zones > World Clock > Weather > Germany > Ulm > Past weeks

Flag for Germany Weather past 2 weeks in Ulm, Baden-Württemberg, Germany

Now
57 °F

Cool.


Feels Like: 55 °F
Forecast: 52 / 75 °F
Wind: 8 mph from Northeast

Location: Laupheim Airport

Current Time: Jul 24, 2014 at 5:25:07 AM

Latest Report: Jul 24, 2014 at 4:20 AM


Visibility: N/A

Pressure: 29.92 "Hg

Humidity: 88%

Dew point: 54 °F

Location of UlmLocation

Historic Weather in Ulm — Graph

°F

Ulm temperature yesterday

Maximum temperature yesterday: 77 °F (at 3:20 PM)
Minimum temperature yesterday: 55 °F (at 5:20 AM)
Average temperature yesterday: 67 °F

Past Weeks' High & Low Weather Summary

 TemperatureHumidityPressure
High90 °F (Jul 19, 5:20 PM)100% (Jul 11, 3:20 AM)30.21 "Hg (Jul 11, 3:20 AM)
Low50 °F (Jul 10, 1:20 AM)29% (Jul 19, 5:20 PM)29.80 "Hg (Jul 10, 2:20 AM)
Average65 °F75%30.00 "Hg
* Reported Jul 9 3:20 PM — Jul 24 4:20 AM, Ulm, Weather by CustomWeather, © 2014

Note: Actual official high and low records may vary slightly from our data, if they occured in-between our weather recording intervals... More about our weather records

Advertising

Ulm weather history for previous 24 hours

 ConditionsComfort  
Time TempWeatherWind HumidityBarometerVisibility
4:20 AM
Jul 24
57 °FCool.8 mph88%29.92 "HgN/A
3:20 AM59 °FCool.6 mph82%29.92 "HgN/A
2:20 AM61 °FCool.6 mph77%29.95 "HgN/A
1:20 AM61 °FCool.7 mph77%29.95 "HgN/A
12:20 AM63 °FPassing clouds.5 mph73%29.95 "HgN/A
11:20 PM
Jul 23
64 °FPassing clouds.3 mph68%29.98 "HgN/A
10:20 PM64 °FPassing clouds.3 mph73%29.98 "HgN/A
9:20 PM68 °FPassing clouds.6 mph60%29.95 "HgN/A
8:20 PM72 °FPassing clouds.12 mph53%29.95 "HgN/A
7:20 PM75 °FScattered clouds.12 mph47%29.95 "HgN/A
6:20 PM77 °FScattered clouds.12 mph44%29.95 "HgN/A
5:20 PM77 °FPartly sunny.13 mph42%29.95 "HgN/A
5:00 PM75 °FPartly sunny.13 mph47%29.98 "HgN/A
4:20 PM75 °FPartly sunny.16 mph50%29.98 "HgN/A
3:20 PM77 °FPartly sunny.15 mph51%29.98 "HgN/A
2:20 PM75 °FPartly sunny.13 mph57%30.01 "HgN/A
12:20 PM72 °FPartly sunny.13 mph69%30.01 "HgN/A
11:20 AM70 °FScattered clouds.9 mph73%30.01 "HgN/A
10:20 AM68 °FScattered clouds.8 mph78%30.04 "HgN/A
9:20 AM64 °FScattered clouds.8 mph83%30.04 "HgN/A
7:20 AM59 °FFog.No wind100%30.04 "Hg2 mi
6:53 AM57 °FFog.No wind100%30.04 "Hg1 mi
6:20 AM55 °FFog.No wind100%30.04 "Hg0 mi
5:20 AM55 °FFog.1 mph100%30.01 "Hg0 mi
Weather by CustomWeather, © 2014

See weather overviewHow to use our weather pages